Back to catalog

YAOGAN 31 ADAPTER

AliveLEO
NORAD 47855·DEBRIS·🇨🇳 China
This satellite name has not been confirmed by official sources yet.

Launched Mar 13, 2021 from Jiuquan Satellite Launch Center

Loading…

Next Passes (next 24 hours)

TLE

FreshSource: Space-Track

Epoch: Sep 14, 2026, 16:18 UTC

1 47855U 21020B   26257.67958190 -.00000302  00000-0 -33167-3 0  9991
2 47855  63.4086  40.2990 0178068   1.4127 358.7366 13.44258730270214

Track YAOGAN 31 ADAPTER in real time with AllMySat

Download on the App Store